Wind_Speed
37 38 39 39 39 40 41 42 42 41 39 37 35 32 31 31 29 26 25 24 23 24 23 21 20 19 20 19 17 16 16 15 15 15 16 17 18 19 20 20 18 17
38 38 38 38 38 39 41 42 42 42 40 38 36 33 32 31 30 28 26 25 24 24 23 21 20 20 20 19 17 17 17 16 15 15 16 18 19 20 21 20 19 18
38 38 38 38 37 38 39 41 42 42 40 39 36 33 32 31 31 30 28 26 25 25 24 22 20 20 20 19 18 18 17 16 15 15 17 19 20 20 20 20 19 18
37 38 38 38 37 37 38 40 42 42 41 40 36 33 32 32 32 32 29 27 26 25 24 22 21 21 21 19 18 18 17 16 15 15 18 19 20 20 19 19 19 18
35 37 37 37 37 37 37 40 42 42 42 40 36 33 33 32 33 33 31 29 27 26 25 23 21 21 21 20 19 18 17 17 16 16 18 20 20 20 19 18 18 17
33 34 35 36 37 36 37 39 41 43 43 41 36 34 33 33 34 34 32 30 28 27 26 24 22 22 21 20 19 19 18 17 17 17 18 19 19 19 19 18 19 20
31 32 34 35 36 36 37 38 40 42 44 41 37 35 33 32 34 34 34 32 30 29 27 24 23 22 22 20 19 19 18 18 18 18 19 19 19 19 19 20 21 22
29 30 32 34 34 35 37 38 40 42 44 42 39 37 34 32 33 34 34 33 32 30 28 26 24 23 22 21 20 19 19 18 18 18 19 19 19 20 21 22 23 23
28 29 31 33 34 36 37 38 40 41 44 43 40 39 36 32 32 34 34 34 33 32 29 27 25 24 23 21 20 19 19 19 19 19 19 19 20 21 22 23 24 24
29 29 31 33 35 36 37 38 39 41 43 43 41 41 38 33 32 34 35 34 34 33 31 28 26 24 23 21 20 20 19 19 19 19 19 19 20 21 22 23 25 26
30 30 31 33 35 36 36 37 38 40 42 42 42 43 40 35 33 34 36 35 35 34 32 29 26 24 23 22 21 20 20 19 19 20 20 20 20 21 22 24 26 27
31 31 32 33 34 35 36 36 37 39 41 42 43 43 40 36 34 35 36 36 35 35 32 29 27 25 24 22 21 20 20 19 19 20 20 20 20 21 21 23 25 27
32 31 32 32 33 34 35 35 36 38 40 42 43 43 40 38 36 35 36 37 36 35 32 30 27 26 24 23 22 21 20 20 19 19 20 21 20 20 21 22 25 25
32 32 31 31 32 33 34 36 36 38 39 41 43 43 41 39 37 34 35 37 37 35 32 30 28 26 25 24 23 21 20 20 19 20 21 21 21 21 21 22 23 22
32 32 32 31 31 32 33 35 36 37 38 40 42 44 42 40 38 35 34 36 37 35 33 31 29 27 26 25 23 21 20 20 20 20 21 21 21 22 22 22 21 19
33 32 32 32 31 31 32 33 36 36 38 39 41 43 43 41 39 36 34 34 36 35 34 33 31 28 27 25 23 21 20 20 21 21 21 22 23 22 22 21 19 17
35 33 33 32 31 30 30 31 34 35 37 39 40 42 43 42 40 37 35 34 35 35 35 33 32 29 27 25 23 22 21 21 21 22 22 22 23 23 22 20 18 17
36 35 34 33 32 30 29 30 32 34 36 38 39 41 42 42 41 39 36 35 35 35 35 33 32 30 27 25 24 23 23 22 21 22 22 22 23 24 22 19 18 18
37 36 35 34 32 30 29 29 31 33 35 36 38 40 41 41 41 40 38 36 35 35 34 32 31 30 27 25 24 23 23 23 22 22 22 22 23 23 21 20 19 19
36 36 35 34 32 30 29 29 30 32 33 35 37 38 39 40 40 40 39 37 35 33 33 32 31 29 27 25 24 23 23 23 24 24 23 22 22 22 21 21 19 19
35 36 35 34 33 31 29 29 29 31 32 34 36 37 38 39 39 40 40 38 35 33 32 32 31 28 26 25 24 23 22 23 24 26 25 23 22 21 22 21 20 20
34 35 35 34 32 31 30 29 28 29 31 32 34 36 37 37 38 40 40 39 36 33 32 32 31 27 26 25 24 23 23 23 25 26 26 24 22 22 21 21 20 20
32 34 35 34 32 31 30 28 26 27 29 30 32 34 35 36 37 39 39 39 37 35 33 32 30 27 25 25 24 23 24 24 25 26 26 24 22 21 21 20 20 19
32 33 35 34 33 31 29 27 25 25 26 28 31 33 33 33 35 37 38 39 39 36 33 31 30 26 25 26 25 24 24 25 25 26 25 23 22 21 20 19 19 18
31 32 34 34 34 32 29 26 24 23 24 26 28 30 31 31 33 35 37 38 39 37 34 32 30 27 26 26 25 24 24 24 25 25 24 23 21 20 19 18 18 18
31 31 32 33 33 32 29 26 25 23 23 24 26 27 28 29 31 33 35 37 37 37 35 34 32 28 26 26 25 24 24 24 25 24 23 22 20 19 18 16 16 17
Wind_Direction
278 273 269 264 259 256 253 250 249 248 250 252 254 259 264 260 255 251 248 248 249 251 254 258 264 271 275 277 276 273 271 268 263 260 258 257 256 251 249 250 253 257
280 275 270 264 259 257 253 251 250 248 249 252 254 259 262 256 251 249 248 247 248 250 254 257 262 269 274 274 273 271 268 265 261 257 256 255 253 250 249 250 253 259
282 278 273 268 264 261 257 253 250 248 248 250 252 258 259 253 249 249 248 247 247 250 253 256 260 266 271 271 270 269 267 264 261 255 253 254 252 250 251 252 255 260
284 281 277 272 269 266 261 256 252 249 247 248 252 258 257 251 249 248 246 245 245 249 251 253 257 263 267 268 268 268 267 263 259 253 252 253 251 250 251 253 255 256
288 284 279 274 271 268 263 258 254 251 248 248 252 257 257 253 251 248 246 244 245 247 249 250 254 260 265 267 268 267 266 262 258 252 251 253 252 252 252 251 252 252
292 285 281 276 273 269 265 261 257 253 250 249 251 254 256 254 252 250 247 246 245 247 248 249 253 259 263 266 267 267 265 261 257 253 253 255 254 255 256 252 252 255
297 289 284 279 275 271 267 262 258 254 251 250 251 252 254 252 250 248 246 245 245 246 248 249 252 258 262 264 265 266 265 260 256 253 253 257 255 255 255 253 255 259
304 294 286 281 276 272 268 264 259 256 253 251 251 251 252 251 248 247 245 243 243 245 247 248 252 257 260 263 265 266 265 261 257 255 254 256 255 253 254 255 259 263
308 298 289 282 277 273 271 266 262 259 256 252 251 251 251 251 248 245 243 242 243 244 246 247 250 255 259 262 265 266 266 263 259 257 256 257 257 257 258 260 262 266
311 302 293 285 280 276 273 269 265 262 258 254 251 251 251 251 249 245 242 240 241 243 245 247 250 254 259 261 263 265 266 264 261 259 259 259 260 261 261 262 264 268
316 307 297 289 285 280 276 271 267 263 260 256 252 250 252 252 249 245 242 240 241 243 245 248 251 254 258 261 262 264 265 264 262 260 260 261 262 263 262 264 267 271
318 311 303 296 290 284 279 274 268 265 262 258 254 251 252 253 250 248 246 243 242 243 245 248 251 253 257 261 261 262 264 263 262 260 261 262 262 265 266 266 268 273
320 315 309 302 295 288 282 276 271 267 264 260 256 252 252 253 252 249 249 246 244 244 246 248 250 252 257 260 260 262 263 263 263 261 261 263 264 266 268 269 271 273
322 318 312 306 299 291 284 278 273 268 265 262 257 253 253 254 252 250 250 248 246 246 246 247 249 252 256 259 260 262 264 263 264 263 263 264 265 268 270 272 274 275
322 317 314 309 301 293 287 281 275 270 267 263 258 255 254 254 252 249 248 247 247 247 247 247 249 252 255 259 260 262 263 264 264 264 264 265 265 268 273 276 278 280
321 317 314 310 304 297 292 285 278 272 267 263 260 257 255 253 251 248 246 245 246 246 247 248 250 253 256 259 260 260 261 261 263 264 263 264 266 269 273 278 281 283
322 317 313 310 306 301 295 288 281 274 268 265 261 258 256 253 251 249 246 245 245 245 246 248 251 255 257 258 259 258 258 259 261 263 263 263 265 269 274 278 282 283
323 318 313 310 307 303 298 292 283 276 270 265 261 259 258 255 252 251 248 246 245 244 246 248 252 255 257 257 257 257 257 259 260 261 262 264 265 269 274 279 282 283
323 319 314 311 308 304 300 293 284 278 273 267 263 263 262 257 253 252 249 247 245 244 245 248 251 254 255 255 255 255 255 258 262 263 262 264 267 271 275 279 282 285
322 319 315 313 309 304 298 292 286 282 276 269 265 264 262 258 254 253 251 249 247 245 245 248 249 251 253 253 254 253 252 253 260 265 265 266 270 272 275 280 283 287
320 318 316 314 311 305 297 292 289 284 277 271 267 265 264 262 257 254 253 252 250 247 246 247 248 250 250 251 251 252 250 249 254 261 265 268 272 274 276 280 283 287
318 316 315 314 312 306 298 294 291 287 281 275 269 267 266 262 258 256 255 254 251 248 247 248 248 248 249 249 249 249 248 247 251 258 263 267 272 274 276 281 284 288
315 314 313 313 312 307 301 297 294 290 285 279 272 269 267 264 260 258 256 255 253 250 248 248 246 247 248 247 247 246 245 246 252 257 261 266 271 273 277 281 286 290
314 313 312 311 310 309 305 301 296 291 288 284 278 273 272 268 264 261 258 257 256 252 250 249 247 246 247 245 245 245 244 247 254 258 261 265 268 271 276 282 287 291
315 312 311 309 309 310 308 303 297 292 288 285 281 277 274 269 264 260 258 258 258 255 253 251 249 246 243 242 244 244 243 247 254 258 261 264 266 270 276 283 289 290
316 311 309 308 308 310 309 304 297 293 287 284 283 280 274 268 263 260 259 258 258 256 253 251 249 245 241 240 243 242 241 246 253 259 262 264 267 270 276 284 288 287
Height
1391 1390 1388 1388 1388 1388 1388 1388 1388 1389 1389 1390 1390 1390 1390 1391 1391 1391 1390 1390 1391 1391 1392 1392 1392 1392 1392 1391 1390 1389 1388 1387 1387 1386 1386 1386 1386 1386 1386 1386 1386 1386
1388 1387 1386 1385 1385 1386 1385 1385 1385 1385 1386 1386 1387 1388 1388 1388 1388 1387 1387 1387 1387 1388 1388 1389 1389 1389 1389 1388 1387 1386 1385 1385 1384 1383 1383 1383 1383 1383 1383 1383 1383 1383
1384 1383 1383 1382 1382 1382 1382 1383 1382 1382 1382 1383 1383 1384 1385 1385 1386 1385 1384 1384 1384 1384 1384 1385 1385 1385 1385 1385 1384 1383 1383 1382 1381 1380 1380 1380 1380 1380 1380 1380 1380 1380
1380 1380 1379 1379 1379 1379 1380 1379 1379 1379 1378 1379 1380 1382 1382 1382 1383 1382 1381 1381 1380 1380 1381 1381 1381 1382 1382 1381 1381 1380 1379 1379 1378 1378 1377 1377 1377 1377 1377 1377 1377 1377
1376 1376 1376 1376 1376 1376 1376 1376 1376 1376 1375 1375 1377 1378 1378 1379 1379 1379 1378 1378 1377 1377 1377 1378 1378 1378 1378 1378 1377 1376 1376 1375 1375 1375 1374 1374 1374 1374 1374 1374 1374 1375
1373 1372 1372 1372 1372 1373 1373 1373 1373 1373 1372 1372 1374 1374 1373 1374 1374 1375 1375 1375 1375 1375 1374 1375 1375 1375 1375 1374 1374 1373 1372 1372 1372 1372 1371 1371 1371 1371 1371 1371 1371 1371
1369 1369 1368 1368 1368 1369 1369 1369 1370 1369 1369 1370 1370 1369 1368 1369 1369 1371 1372 1372 1372 1372 1372 1372 1372 1372 1372 1371 1371 1370 1369 1370 1369 1369 1368 1368 1368 1368 1369 1369 1368 1368
1366 1365 1365 1365 1365 1365 1364 1365 1365 1365 1365 1366 1366 1365 1364 1364 1365 1367 1368 1369 1370 1369 1369 1369 1368 1369 1369 1368 1367 1367 1367 1367 1366 1366 1366 1365 1366 1365 1366 1366 1365 1365
1364 1362 1362 1361 1361 1360 1360 1360 1360 1360 1361 1362 1362 1362 1361 1361 1362 1363 1364 1365 1366 1367 1366 1366 1366 1366 1365 1365 1364 1364 1364 1364 1363 1363 1363 1363 1363 1363 1363 1363 1362 1361
1361 1360 1359 1358 1357 1357 1356 1356 1356 1356 1357 1358 1359 1359 1358 1359 1360 1360 1361 1361 1362 1363 1363 1363 1363 1363 1362 1362 1361 1360 1360 1361 1361 1360 1360 1360 1360 1360 1360 1360 1359 1358
1359 1358 1357 1355 1354 1353 1353 1353 1353 1353 1353 1354 1355 1355 1355 1357 1357 1357 1358 1358 1358 1359 1360 1360 1360 1360 1360 1359 1358 1358 1357 1357 1358 1357 1357 1357 1357 1357 1357 1357 1356 1355
1357 1355 1354 1353 1352 1351 1350 1350 1350 1349 1349 1349 1350 1350 1352 1353 1354 1354 1356 1356 1355 1356 1357 1357 1357 1357 1357 1357 1356 1355 1355 1355 1355 1355 1354 1354 1354 1354 1354 1354 1353 1352
1354 1353 1351 1350 1349 1348 1347 1346 1346 1346 1345 1345 1346 1346 1347 1349 1350 1351 1353 1354 1354 1354 1354 1354 1354 1354 1354 1354 1354 1353 1353 1352 1352 1352 1352 1351 1351 1351 1351 1350 1350 1350
1351 1349 1348 1347 1346 1345 1344 1343 1342 1342 1342 1342 1343 1342 1343 1344 1345 1346 1349 1351 1352 1352 1352 1352 1351 1351 1352 1352 1351 1351 1351 1350 1350 1350 1349 1349 1348 1348 1348 1348 1347 1347
1348 1347 1345 1343 1342 1341 1340 1339 1339 1338 1338 1338 1338 1338 1339 1339 1339 1341 1343 1345 1348 1349 1350 1349 1349 1349 1349 1349 1349 1348 1348 1348 1347 1347 1347 1346 1346 1345 1344 1344 1344 1343
1346 1344 1342 1340 1339 1338 1337 1336 1335 1335 1334 1334 1333 1333 1334 1335 1335 1336 1338 1339 1342 1344 1345 1346 1346 1346 1346 1346 1346 1346 1345 1345 1344 1344 1344 1343 1343 1342 1342 1341 1341 1340
1344 1342 1339 1337 1336 1334 1333 1332 1331 1331 1330 1329 1330 1329 1330 1331 1332 1332 1333 1334 1337 1339 1340 1342 1342 1343 1344 1344 1344 1343 1342 1342 1341 1341 1341 1341 1340 1339 1339 1338 1338 1337
1341 1339 1336 1334 1332 1331 1330 1328 1327 1327 1326 1325 1326 1325 1326 1327 1328 1329 1330 1331 1332 1334 1336 1338 1339 1340 1341 1341 1340 1340 1339 1338 1338 1338 1337 1337 1337 1336 1336 1335 1335 1334
1338 1336 1333 1331 1329 1327 1326 1325 1324 1323 1322 1321 1321 1320 1321 1323 1324 1325 1326 1327 1328 1330 1331 1333 1335 1336 1337 1338 1337 1337 1337 1335 1334 1334 1334 1334 1334 1334 1333 1332 1332 1331
1335 1333 1330 1327 1325 1324 1323 1322 1320 1319 1318 1318 1317 1316 1317 1318 1319 1320 1322 1323 1324 1326 1327 1329 1330 1332 1333 1334 1334 1334 1334 1333 1331 1331 1331 1331 1331 1331 1330 1330 1329 1328
1331 1329 1327 1324 1322 1320 1319 1318 1317 1316 1315 1315 1313 1312 1312 1313 1314 1316 1317 1319 1320 1322 1323 1324 1326 1328 1330 1330 1331 1331 1331 1330 1329 1327 1327 1327 1328 1328 1328 1327 1326 1326
1327 1325 1323 1321 1319 1317 1315 1314 1313 1312 1312 1311 1310 1308 1308 1309 1310 1311 1313 1315 1316 1318 1319 1320 1322 1324 1325 1326 1327 1328 1327 1327 1325 1324 1324 1324 1324 1325 1325 1324 1324 1323
1323 1321 1319 1317 1315 1313 1311 1310 1309 1309 1308 1308 1306 1305 1305 1305 1306 1308 1309 1310 1312 1314 1314 1315 1318 1320 1322 1323 1324 1324 1324 1323 1322 1322 1321 1321 1322 1322 1322 1322 1321 1321
1319 1318 1316 1313 1311 1310 1307 1306 1305 1305 1304 1304 1303 1301 1301 1302 1303 1304 1305 1307 1308 1310 1311 1311 1314 1316 1318 1319 1320 1321 1321 1320 1319 1319 1319 1319 1319 1319 1319 1319 1319 1319
1315 1313 1311 1310 1308 1306 1304 1303 1301 1301 1300 1300 1299 1298 1298 1299 1300 1300 1301 1303 1304 1306 1307 1308 1309 1312 1315 1316 1316 1317 1317 1317 1316 1316 1316 1316 1317 1317 1317 1317 1317 1316
1311 1309 1307 1306 1304 1302 1301 1299 1298 1297 1297 1296 1296 1296 1295 1295 1296 1297 1297 1299 1301 1302 1304 1304 1305 1308 1311 1312 1313 1314 1314 1314 1313 1313 1313 1314 1314 1314 1314 1314 1315 1314